Location: Curupao
(10.4996°N, 66.6442°W)
Time: 20:57:35
(UTC+00:00)

NOSS 3-2 (A) - Pass Details

Date: 23 May 2024
Orbit: 700 x 1506 km, 63.4° (Epoch: 22 June)

Event Time Altitude Azimuth Distance (km) Brightness Sun altitude
Exits shadow 08:53:35 - 184° (S) 2,618 5.5 -16.7°
Reaches altitude 10° 08:54:47 10° 179° (S) 2,169 5.1 -16.4°
Maximum altitude 08:59:12 36° 112° (ESE) 1,102 4.2 -15.4°
Drops below altitude 10° 09:03:41 10° 46° (NE) 2,211 6.6 -14.4°
Sets 09:06:16 0° 37° (NE) 3,193 7.4 -13.8°
